NOAA 16 DEB, 41165

Orbit data source: Space-Track

NOAA 16 DEB, 41165 is space debris in SSO originally from a launch on Thu, 21 Sep 2000 UTC launched from the Air Force Western Test Range (AFWTR). Debris objects in space refer to the collection of defunct objects orbiting the Earth. Examples of debris include non-operational satellites, rocket bodies, and fragments generated from explosions, collisions, or faulty payload assembly.

Loading next visibility...
Identifier
41165, 2000-055CY
Orbit
SSO
Country
Flag of USUS
Related business
Manufacturer
Unknown
Mission
Spacecraft
Bus & Motor
Unknown
Mass
Unknown
Launch date (UTC)
2000-09-21 (26 years ago)
Launch vehicle
Unknown
Launch site
Air Force Western Test Range (AFWTR)
Object type
Payload
Rocket body
Debris
Shape & HBR
Unknown shape, 0.1 m
Radar Cross Section
Medium (>0.1 m² and <1 m²)

Expand to show TLE details & history
Last TLE update: 1 day ago

TLE from 1 day ago
0 NOAA 16 DEB
1 41165U 00055CY  26254.54066731  .00002749  00000-0  10832-2 0  9996
2 41165  98.6068 281.2100 0023432 160.5457 199.6625 14.29810699556195
Epoch: 2026-09-11T12:58Z
TLE epoch observation values (Epoch: 2026-09-11T12:58:33.655Z)
Latitude
Longitude
96.00722°
Altitude
811.125 km
Speed
7.44 km/s
True Right ascension
18h 44m 50s
True Declination
0° 00' 00"
Sunlit
Object was in daylight at epoch
Visualization orbit readout
Latitude
Unknown
Longitude
Unknown
Altitude
Unknown
Speed
Unknown
Apparent Right ascension
Unknown
Apparent Declination
Unknown
Sunlit
N/A
Visualization observer readout
Local Sidereal Time
14:33:58
Azimuth
Unknown
Elevation
Unknown
Doppler factor
Unknown
Orbital elements
Apogee altitude
806.299 km
Perigee altitude
772.709 km
Semi-major axis
7,167.641 km
Eccentricity
0.00234
Inclination
98.6068°
RAAN
281.21°
Arg. of periapsis
160.5457°
True anomaly
199.5724°
Mean anomaly
199.6625°
Eccentric anomaly
199.61743°
Mean motion
3.57667 °/min
Orbital period
100.65 mins
BSTAR
0.0010832
Loading maneuver chart data...
Computing Atmospheric mass density...
Loading historical data...
Loading historical data...
Loading historical data...
Loading historical data...
Loading historical data...
Loading historical data...
Loading historical data...

Documentation

Showing up to 5 results
|